Tracking 28565 objects as of 3-Mar-2024
HD Live streaming from Space Station
objects crossing your sky now

STARLINK-4559

Track STARLINK-4559 now!
10-day predictions
STARLINK-4559 is classified as:


NORAD ID: 53574
Int'l Code: 2022-101AZ
Perigee: 545.9 km
Apogee: 547.9 km
Inclination: 53.2 °
Period: 95.4 minutes
Semi major axis: 6917 km
RCS: Unknown
Launch date: August 19, 2022
Source: United States (US)
Launch site: AIR FORCE EASTERN TEST RANGE (AFETR)
Your satellite tracking list
Your tracking list is empty




NASA's NSSDC Master Catalog

Two Line Element Set (TLE):
1 53574U 22101AZ  24063.52664118  .00000465  00000-0  47328-4 0  9991
2 53574  53.2172 118.5977 0001394  97.5089 262.6062 15.08836273 85313
Source of the keplerian elements: AFSPC